QPF
0.06 0.06 0.06 0.06 0.06 0.05 0.04 0.04 0.05 0.04 0.02 0.01 0.01 0.01 0.00 0.00 0.01 0.01 0.01 0.01 0.02 0.02 0.02 0.02 0.03 0.03 0.03 0.03 0.03 0.04 0.05 0.05 0.05 0.04 0.03 0.03 0.02 0.02 0.02 0.02 0.02 0.02 0.03
0.05 0.06 0.08 0.06 0.06 0.05 0.04 0.04 0.04 0.04 0.03 0.02 0.01 0.01 0.01 0.00 0.00 0.01 0.02 0.02 0.01 0.01 0.02 0.03 0.03 0.03 0.03 0.03 0.04 0.04 0.05 0.06 0.06 0.07 0.06 0.05 0.04 0.02 0.02 0.02 0.01 0.01 0.01
0.04 0.04 0.05 0.06 0.06 0.05 0.04 0.04 0.04 0.04 0.03 0.02 0.02 0.01 0.01 0.00 0.00 0.01 0.02 0.01 0.01 0.01 0.02 0.02 0.03 0.02 0.03 0.03 0.04 0.04 0.03 0.04 0.05 0.05 0.05 0.06 0.05 0.04 0.03 0.02 0.02 0.01 0.01
0.03 0.03 0.04 0.04 0.06 0.06 0.05 0.05 0.05 0.05 0.04 0.02 0.01 0.01 0.01 0.01 0.00 0.01 0.01 0.01 0.01 0.02 0.02 0.02 0.01 0.01 0.02 0.03 0.04 0.04 0.03 0.03 0.04 0.04 0.05 0.05 0.06 0.06 0.05 0.04 0.03 0.02 0.01
0.04 0.03 0.03 0.03 0.04 0.07 0.06 0.05 0.05 0.05 0.06 0.04 0.02 0.01 0.01 0.01 0.01 0.01 0.01 0.01 0.01 0.01 0.02 0.01 0.01 0.01 0.01 0.02 0.03 0.04 0.04 0.04 0.04 0.04 0.04 0.05 0.07 0.07 0.06 0.05 0.03 0.02 0.01
0.04 0.03 0.03 0.03 0.03 0.05 0.07 0.07 0.06 0.05 0.06 0.06 0.04 0.03 0.02 0.01 0.01 0.01 0.01 0.01 0.01 0.01 0.01 0.00 0.00 0.01 0.01 0.01 0.02 0.03 0.04 0.05 0.05 0.05 0.05 0.05 0.06 0.07 0.08 0.07 0.05 0.03 0.02
0.04 0.02 0.02 0.04 0.03 0.03 0.04 0.07 0.08 0.06 0.07 0.09 0.09 0.07 0.04 0.02 0.01 0.01 0.01 0.01 0.01 0.01 0.01 0.00 0.00 0.00 0.01 0.01 0.01 0.02 0.03 0.04 0.05 0.06 0.06 0.06 0.06 0.06 0.08 0.09 0.08 0.06 0.04
0.05 0.04 0.03 0.03 0.03 0.04 0.05 0.05 0.07 0.08 0.08 0.07 0.08 0.08 0.07 0.05 0.02 0.01 0.01 0.01 0.01 0.01 0.01 0.00 0.00 0.00 0.01 0.01 0.01 0.02 0.02 0.03 0.04 0.05 0.05 0.06 0.05 0.06 0.06 0.08 0.09 0.08 0.06
0.04 0.04 0.03 0.03 0.03 0.03 0.05 0.05 0.06 0.07 0.08 0.07 0.06 0.06 0.06 0.05 0.03 0.02 0.01 0.01 0.02 0.03 0.02 0.01 0.01 0.01 0.01 0.01 0.01 0.01 0.02 0.02 0.03 0.04 0.05 0.06 0.06 0.06 0.07 0.08 0.09 0.09 0.09
0.05 0.06 0.04 0.03 0.03 0.03 0.03 0.04 0.06 0.06 0.07 0.07 0.06 0.06 0.05 0.03 0.03 0.03 0.02 0.02 0.02 0.03 0.03 0.02 0.01 0.01 0.01 0.01 0.01 0.01 0.01 0.02 0.02 0.03 0.04 0.05 0.06 0.07 0.08 0.09 0.08 0.09 0.09
0.04 0.05 0.06 0.06 0.03 0.02 0.02 0.03 0.05 0.08 0.09 0.09 0.08 0.07 0.07 0.05 0.04 0.03 0.02 0.02 0.02 0.02 0.02 0.01 0.01 0.01 0.01 0.01 0.01 0.01 0.01 0.02 0.02 0.03 0.04 0.05 0.06 0.07 0.07 0.08 0.09 0.08 0.08
0.02 0.02 0.03 0.05 0.06 0.04 0.02 0.02 0.04 0.08 0.11 0.12 0.10 0.09 0.09 0.09 0.08 0.06 0.04 0.03 0.02 0.02 0.02 0.01 0.01 0.01 0.01 0.01 0.01 0.01 0.01 0.02 0.02 0.03 0.03 0.04 0.05 0.06 0.07 0.07 0.08 0.08 0.07
0.02 0.02 0.02 0.03 0.04 0.05 0.05 0.03 0.02 0.04 0.08 0.13 0.14 0.11 0.09 0.09 0.10 0.12 0.12 0.09 0.06 0.04 0.03 0.02 0.01 0.01 0.01 0.01 0.01 0.01 0.02 0.02 0.03 0.04 0.04 0.04 0.04 0.05 0.06 0.07 0.07 0.07 0.07
0.01 0.02 0.02 0.02 0.03 0.03 0.04 0.05 0.05 0.05 0.05 0.07 0.10 0.11 0.11 0.11 0.10 0.11 0.12 0.12 0.10 0.08 0.05 0.03 0.02 0.01 0.01 0.01 0.01 0.02 0.02 0.03 0.03 0.04 0.05 0.05 0.04 0.04 0.05 0.06 0.06 0.06 0.07
0.01 0.01 0.01 0.02 0.03 0.03 0.03 0.03 0.03 0.06 0.07 0.08 0.08 0.08 0.10 0.11 0.11 0.11 0.12 0.12 0.13 0.13 0.10 0.08 0.06 0.05 0.04 0.02 0.03 0.03 0.03 0.04 0.04 0.04 0.04 0.04 0.04 0.04 0.04 0.05 0.05 0.05 0.05
0.00 0.01 0.01 0.01 0.01 0.03 0.04 0.03 0.03 0.02 0.04 0.06 0.08 0.11 0.12 0.12 0.12 0.12 0.12 0.13 0.12 0.13 0.12 0.10 0.09 0.08 0.07 0.06 0.06 0.05 0.05 0.05 0.04 0.04 0.03 0.03 0.03 0.03 0.03 0.04 0.05 0.05 0.05
0.00 0.01 0.01 0.01 0.01 0.01 0.03 0.04 0.04 0.04 0.04 0.04 0.06 0.07 0.08 0.10 0.11 0.12 0.11 0.11 0.12 0.12 0.13 0.10 0.08 0.08 0.07 0.07 0.08 0.06 0.05 0.04 0.04 0.03 0.03 0.03 0.03 0.03 0.03 0.03 0.04 0.04 0.05
0.00 0.01 0.01 0.01 0.01 0.01 0.02 0.03 0.02 0.03 0.04 0.05 0.05 0.05 0.05 0.06 0.07 0.08 0.08 0.07 0.08 0.09 0.11 0.11 0.09 0.08 0.08 0.08 0.07 0.07 0.06 0.06 0.05 0.03 0.03 0.04 0.04 0.04 0.04 0.04 0.04 0.05 0.06
0.00 0.01 0.01 0.02 0.02 0.02 0.02 0.02 0.02 0.02 0.03 0.04 0.04 0.04 0.04 0.05 0.06 0.07 0.07 0.06 0.06 0.06 0.08 0.09 0.09 0.08 0.07 0.07 0.07 0.06 0.05 0.06 0.06 0.05 0.05 0.06 0.07 0.07 0.07 0.06 0.06 0.06 0.07
0.01 0.01 0.02 0.02 0.02 0.03 0.03 0.02 0.02 0.02 0.02 0.02 0.02 0.02 0.03 0.04 0.05 0.06 0.06 0.04 0.04 0.04 0.05 0.05 0.05 0.04 0.04 0.04 0.05 0.05 0.06 0.06 0.06 0.05 0.05 0.07 0.08 0.10 0.10 0.08 0.07 0.08 0.09
0.02 0.02 0.03 0.03 0.03 0.03 0.04 0.03 0.02 0.03 0.02 0.02 0.02 0.02 0.02 0.03 0.04 0.04 0.04 0.04 0.04 0.04 0.04 0.04 0.03 0.03 0.03 0.03 0.03 0.04 0.05 0.05 0.05 0.05 0.05 0.07 0.08 0.08 0.08 0.08 0.08 0.08 0.09
0.02 0.02 0.03 0.03 0.03 0.03 0.04 0.04 0.03 0.03 0.02 0.02 0.02 0.02 0.02 0.02 0.03 0.03 0.03 0.03 0.04 0.04 0.03 0.03 0.03 0.03 0.03 0.03 0.03 0.03 0.03 0.04 0.05 0.06 0.06 0.07 0.07 0.08 0.08 0.08 0.09 0.09 0.09
0.01 0.02 0.02 0.03 0.04 0.04 0.05 0.05 0.05 0.04 0.03 0.03 0.02 0.02 0.02 0.02 0.02 0.02 0.03 0.03 0.02 0.03 0.03 0.03 0.03 0.03 0.04 0.04 0.03 0.03 0.03 0.04 0.05 0.06 0.06 0.07 0.07 0.08 0.08 0.09 0.10 0.11 0.11
0.02 0.02 0.02 0.04 0.05 0.05 0.05 0.05 0.05 0.04 0.03 0.03 0.02 0.02 0.02 0.02 0.03 0.03 0.02 0.02 0.02 0.02 0.02 0.02 0.02 0.02 0.03 0.04 0.04 0.04 0.04 0.04 0.05 0.05 0.05 0.06 0.06 0.06 0.07 0.08 0.09 0.11 0.11
0.03 0.03 0.03 0.04 0.05 0.06 0.07 0.06 0.05 0.04 0.03 0.03 0.02 0.02 0.02 0.02 0.03 0.03 0.02 0.02 0.02 0.02 0.02 0.02 0.02 0.02 0.02 0.04 0.04 0.04 0.04 0.04 0.06 0.06 0.05 0.05 0.05 0.05 0.06 0.07 0.08 0.11 0.11
0.03 0.04 0.04 0.04 0.05 0.06 0.07 0.06 0.05 0.04 0.04 0.03 0.02 0.02 0.03 0.03 0.04 0.04 0.03 0.03 0.03 0.03 0.02 0.02 0.02 0.02 0.02 0.02 0.02 0.03 0.04 0.05 0.06 0.07 0.05 0.04 0.03 0.04 0.05 0.05 0.05 0.06 0.07
MSLP
1015.38 1014.90 1014.43 1014.00 1013.62 1013.32 1013.09 1012.95 1012.88 1012.88 1012.93 1013.02 1013.13 1013.27 1013.43 1013.62 1013.84 1014.10 1014.39 1014.69 1015.00 1015.30 1015.58 1015.84 1016.08 1016.31 1016.55 1016.81 1017.09 1017.40 1017.73 1018.08 1018.41 1018.73 1019.02 1019.28 1019.50 1019.71 1019.89 1020.06 1020.22 1020.37 1020.50
1015.90 1015.43 1014.94 1014.47 1014.03 1013.65 1013.35 1013.13 1012.99 1012.92 1012.92 1012.95 1013.01 1013.11 1013.24 1013.39 1013.59 1013.83 1014.09 1014.39 1014.69 1014.99 1015.28 1015.56 1015.82 1016.07 1016.32 1016.60 1016.90 1017.22 1017.57 1017.93 1018.29 1018.64 1018.97 1019.26 1019.53 1019.78 1020.00 1020.20 1020.38 1020.53 1020.66
1016.29 1015.85 1015.37 1014.89 1014.42 1013.99 1013.63 1013.35 1013.14 1013.01 1012.94 1012.92 1012.94 1012.99 1013.07 1013.19 1013.34 1013.54 1013.77 1014.04 1014.33 1014.63 1014.93 1015.22 1015.50 1015.78 1016.06 1016.36 1016.68 1017.02 1017.38 1017.75 1018.12 1018.48 1018.83 1019.15 1019.45 1019.72 1019.97 1020.19 1020.39 1020.56 1020.69
1016.47 1016.09 1015.65 1015.19 1014.72 1014.27 1013.88 1013.55 1013.29 1013.10 1012.98 1012.91 1012.88 1012.88 1012.91 1012.98 1013.09 1013.23 1013.43 1013.66 1013.92 1014.21 1014.51 1014.82 1015.13 1015.44 1015.77 1016.10 1016.44 1016.80 1017.16 1017.54 1017.91 1018.27 1018.61 1018.94 1019.25 1019.53 1019.80 1020.03 1020.24 1020.41 1020.55
1016.39 1016.09 1015.73 1015.31 1014.88 1014.45 1014.05 1013.69 1013.40 1013.17 1013.00 1012.88 1012.80 1012.75 1012.73 1012.75 1012.80 1012.90 1013.04 1013.23 1013.46 1013.73 1014.04 1014.36 1014.71 1015.06 1015.42 1015.79 1016.17 1016.55 1016.92 1017.29 1017.65 1018.01 1018.34 1018.66 1018.95 1019.23 1019.49 1019.73 1019.94 1020.12 1020.26
1016.06 1015.85 1015.57 1015.24 1014.87 1014.48 1014.11 1013.76 1013.45 1013.19 1012.98 1012.81 1012.68 1012.58 1012.52 1012.48 1012.48 1012.53 1012.62 1012.76 1012.96 1013.22 1013.52 1013.86 1014.24 1014.63 1015.04 1015.45 1015.86 1016.26 1016.65 1017.02 1017.38 1017.71 1018.03 1018.33 1018.60 1018.87 1019.11 1019.34 1019.55 1019.72 1019.88
1015.50 1015.38 1015.20 1014.97 1014.69 1014.38 1014.05 1013.72 1013.42 1013.14 1012.90 1012.69 1012.52 1012.37 1012.25 1012.17 1012.12 1012.11 1012.15 1012.26 1012.43 1012.67 1012.96 1013.32 1013.72 1014.15 1014.60 1015.06 1015.51 1015.94 1016.35 1016.73 1017.08 1017.41 1017.71 1017.99 1018.25 1018.49 1018.72 1018.93 1019.12 1019.30 1019.45
1014.80 1014.75 1014.67 1014.54 1014.36 1014.14 1013.88 1013.60 1013.31 1013.02 1012.76 1012.52 1012.30 1012.11 1011.94 1011.80 1011.71 1011.65 1011.66 1011.72 1011.87 1012.09 1012.38 1012.74 1013.17 1013.63 1014.12 1014.61 1015.10 1015.56 1016.00 1016.40 1016.76 1017.09 1017.39 1017.67 1017.92 1018.15 1018.36 1018.56 1018.74 1018.90 1019.05
1014.03 1014.03 1014.04 1014.01 1013.93 1013.80 1013.62 1013.38 1013.12 1012.84 1012.55 1012.28 1012.02 1011.78 1011.57 1011.39 1011.25 1011.16 1011.13 1011.17 1011.29 1011.49 1011.78 1012.15 1012.58 1013.07 1013.58 1014.11 1014.63 1015.13 1015.60 1016.03 1016.42 1016.77 1017.09 1017.38 1017.64 1017.87 1018.08 1018.27 1018.44 1018.59 1018.73
1013.27 1013.31 1013.37 1013.43 1013.44 1013.39 1013.27 1013.09 1012.85 1012.57 1012.27 1011.96 1011.66 1011.38 1011.13 1010.91 1010.74 1010.62 1010.56 1010.58 1010.69 1010.88 1011.16 1011.53 1011.97 1012.47 1013.00 1013.55 1014.10 1014.63 1015.13 1015.60 1016.03 1016.42 1016.78 1017.10 1017.38 1017.64 1017.86 1018.05 1018.22 1018.36 1018.49
1012.58 1012.63 1012.72 1012.82 1012.89 1012.91 1012.84 1012.70 1012.48 1012.20 1011.89 1011.55 1011.22 1010.90 1010.61 1010.36 1010.16 1010.02 1009.96 1009.97 1010.06 1010.25 1010.53 1010.90 1011.34 1011.84 1012.38 1012.94 1013.51 1014.06 1014.60 1015.11 1015.58 1016.03 1016.43 1016.80 1017.14 1017.43 1017.68 1017.89 1018.06 1018.20 1018.33
1011.98 1012.01 1012.10 1012.21 1012.31 1012.35 1012.32 1012.20 1011.99 1011.72 1011.39 1011.03 1010.67 1010.32 1010.00 1009.73 1009.51 1009.36 1009.29 1009.30 1009.40 1009.60 1009.88 1010.25 1010.69 1011.19 1011.73 1012.29 1012.87 1013.44 1014.00 1014.54 1015.07 1015.57 1016.03 1016.47 1016.85 1017.20 1017.49 1017.72 1017.92 1018.06 1018.18
1011.45 1011.42 1011.48 1011.58 1011.66 1011.71 1011.68 1011.57 1011.36 1011.08 1010.74 1010.37 1009.99 1009.62 1009.28 1008.99 1008.76 1008.61 1008.55 1008.58 1008.70 1008.91 1009.21 1009.58 1010.03 1010.53 1011.06 1011.62 1012.19 1012.77 1013.35 1013.93 1014.50 1015.05 1015.58 1016.07 1016.52 1016.92 1017.25 1017.53 1017.74 1017.90 1018.02
1010.95 1010.85 1010.85 1010.89 1010.94 1010.95 1010.91 1010.79 1010.58 1010.29 1009.95 1009.57 1009.17 1008.79 1008.44 1008.15 1007.92 1007.79 1007.74 1007.79 1007.93 1008.17 1008.50 1008.89 1009.35 1009.85 1010.39 1010.95 1011.52 1012.11 1012.70 1013.30 1013.91 1014.50 1015.08 1015.63 1016.13 1016.58 1016.96 1017.27 1017.50 1017.68 1017.81
1010.42 1010.25 1010.16 1010.13 1010.12 1010.08 1010.01 1009.86 1009.65 1009.36 1009.02 1008.64 1008.24 1007.86 1007.51 1007.22 1007.01 1006.88 1006.86 1006.94 1007.12 1007.39 1007.75 1008.18 1008.66 1009.18 1009.73 1010.30 1010.88 1011.47 1012.08 1012.70 1013.33 1013.96 1014.58 1015.17 1015.72 1016.20 1016.61 1016.95 1017.21 1017.40 1017.53
1009.84 1009.58 1009.41 1009.29 1009.20 1009.11 1009.00 1008.83 1008.61 1008.33 1008.00 1007.63 1007.24 1006.87 1006.53 1006.24 1006.03 1005.93 1005.93 1006.04 1006.26 1006.58 1006.98 1007.45 1007.97 1008.52 1009.10 1009.68 1010.28 1010.89 1011.51 1012.15 1012.80 1013.46 1014.11 1014.72 1015.30 1015.81 1016.24 1016.60 1016.87 1017.07 1017.21
1009.18 1008.85 1008.59 1008.39 1008.23 1008.08 1007.93 1007.75 1007.52 1007.25 1006.94 1006.59 1006.22 1005.85 1005.52 1005.24 1005.04 1004.95 1004.97 1005.11 1005.36 1005.72 1006.17 1006.69 1007.26 1007.86 1008.48 1009.11 1009.74 1010.38 1011.03 1011.69 1012.36 1013.04 1013.70 1014.33 1014.92 1015.44 1015.88 1016.23 1016.51 1016.71 1016.86
1008.47 1008.07 1007.74 1007.47 1007.24 1007.05 1006.86 1006.67 1006.45 1006.19 1005.90 1005.57 1005.22 1004.87 1004.54 1004.27 1004.07 1003.97 1004.00 1004.15 1004.44 1004.83 1005.33 1005.90 1006.53 1007.19 1007.86 1008.54 1009.23 1009.91 1010.60 1011.30 1012.00 1012.69 1013.37 1014.01 1014.59 1015.10 1015.54 1015.88 1016.15 1016.35 1016.50
1007.72 1007.27 1006.88 1006.55 1006.28 1006.05 1005.84 1005.64 1005.43 1005.19 1004.92 1004.61 1004.27 1003.93 1003.60 1003.32 1003.11 1003.00 1003.03 1003.18 1003.48 1003.90 1004.44 1005.06 1005.75 1006.47 1007.22 1007.97 1008.72 1009.46 1010.21 1010.94 1011.68 1012.39 1013.08 1013.72 1014.30 1014.80 1015.22 1015.55 1015.81 1016.00 1016.15
1006.94 1006.46 1006.03 1005.67 1005.36 1005.10 1004.88 1004.68 1004.47 1004.24 1003.98 1003.68 1003.36 1003.01 1002.68 1002.38 1002.15 1002.03 1002.04 1002.19 1002.49 1002.93 1003.50 1004.17 1004.91 1005.70 1006.52 1007.34 1008.17 1008.98 1009.79 1010.58 1011.36 1012.10 1012.80 1013.45 1014.02 1014.51 1014.92 1015.23 1015.47 1015.65 1015.79
1006.15 1005.64 1005.19 1004.80 1004.46 1004.19 1003.95 1003.74 1003.53 1003.31 1003.05 1002.75 1002.42 1002.08 1001.73 1001.42 1001.17 1001.03 1001.03 1001.17 1001.47 1001.92 1002.52 1003.22 1004.02 1004.87 1005.76 1006.66 1007.56 1008.45 1009.33 1010.18 1011.00 1011.78 1012.50 1013.15 1013.72 1014.20 1014.59 1014.90 1015.12 1015.30 1015.44
1005.31 1004.78 1004.31 1003.90 1003.54 1003.25 1002.99 1002.76 1002.54 1002.31 1002.04 1001.74 1001.41 1001.06 1000.71 1000.39 1000.14 999.99 999.98 1000.13 1000.44 1000.90 1001.52 1002.26 1003.10 1004.01 1004.97 1005.93 1006.91 1007.87 1008.81 1009.72 1010.58 1011.39 1012.13 1012.80 1013.37 1013.85 1014.24 1014.53 1014.76 1014.93 1015.06
1004.38 1003.84 1003.34 1002.91 1002.53 1002.20 1001.92 1001.66 1001.42 1001.16 1000.89 1000.58 1000.25 999.90 999.57 999.26 999.03 998.91 998.92 999.09 999.42 999.92 1000.57 1001.35 1002.23 1003.19 1004.20 1005.23 1006.26 1007.28 1008.27 1009.22 1010.12 1010.96 1011.72 1012.40 1012.98 1013.46 1013.84 1014.14 1014.37 1014.54 1014.68
1003.32 1002.75 1002.23 1001.76 1001.34 1000.98 1000.66 1000.36 1000.09 999.81 999.53 999.22 998.91 998.60 998.30 998.05 997.88 997.82 997.89 998.12 998.51 999.05 999.75 1000.57 1001.50 1002.50 1003.54 1004.61 1005.68 1006.74 1007.77 1008.75 1009.67 1010.53 1011.30 1011.98 1012.57 1013.05 1013.44 1013.74 1013.97 1014.15 1014.30
1002.12 1001.51 1000.95 1000.43 999.97 999.56 999.19 998.85 998.55 998.25 997.97 997.69 997.42 997.18 996.97 996.82 996.75 996.80 996.98 997.30 997.78 998.40 999.16 1000.03 1001.00 1002.03 1003.11 1004.20 1005.29 1006.36 1007.40 1008.38 1009.31 1010.16 1010.94 1011.61 1012.20 1012.68 1013.07 1013.38 1013.61 1013.80 1013.94
1000.82 1000.15 999.53 998.96 998.45 997.98 997.56 997.19 996.86 996.57 996.31 996.08 995.89 995.75 995.66 995.66 995.74 995.94 996.27 996.73 997.32 998.04 998.88 999.81 1000.82 1001.88 1002.96 1004.06 1005.14 1006.20 1007.22 1008.19 1009.10 1009.93 1010.68 1011.35 1011.92 1012.39 1012.78 1013.09 1013.32 1013.50 1013.63
Thickness
5642 5643 5643 5643 5643 5643 5643 5643 5644 5643 5643 5642 5642 5642 5641 5641 5641 5641 5640 5638 5638 5637 5637 5638 5638 5637 5636 5636 5635 5635 5634 5634 5633 5633 5633 5632 5631 5631 5630 5629 5629 5628 5627
5633 5634 5635 5635 5636 5636 5636 5636 5636 5636 5635 5635 5635 5634 5634 5634 5634 5634 5633 5632 5630 5630 5630 5630 5630 5629 5628 5627 5627 5626 5626 5626 5625 5625 5625 5625 5624 5623 5623 5622 5622 5621 5620
5624 5625 5627 5628 5627 5627 5628 5628 5628 5628 5628 5628 5627 5626 5626 5625 5626 5626 5625 5624 5624 5623 5622 5622 5621 5620 5620 5619 5618 5617 5617 5617 5616 5616 5617 5616 5616 5616 5615 5615 5615 5614 5613
5615 5617 5618 5619 5619 5619 5620 5620 5620 5620 5621 5620 5620 5618 5618 5617 5617 5617 5617 5616 5616 5615 5614 5613 5612 5611 5610 5609 5609 5608 5607 5607 5607 5607 5607 5607 5607 5607 5607 5607 5607 5606 5606
5606 5608 5609 5610 5610 5611 5612 5612 5612 5612 5612 5612 5611 5609 5609 5609 5609 5609 5609 5608 5606 5605 5604 5603 5601 5600 5600 5599 5598 5598 5597 5596 5597 5597 5597 5598 5598 5598 5598 5598 5599 5599 5598
5598 5599 5601 5602 5601 5602 5602 5603 5603 5602 5602 5602 5601 5600 5600 5600 5600 5600 5599 5598 5596 5594 5593 5592 5591 5590 5589 5588 5587 5586 5586 5586 5586 5586 5587 5587 5588 5589 5589 5590 5590 5591 5591
5589 5591 5592 5593 5592 5593 5593 5594 5593 5593 5592 5591 5590 5590 5591 5590 5591 5589 5588 5587 5585 5583 5582 5581 5580 5579 5578 5577 5576 5575 5575 5575 5575 5575 5576 5577 5578 5579 5580 5581 5581 5582 5582
5580 5582 5583 5583 5583 5583 5584 5584 5583 5582 5581 5580 5579 5578 5580 5581 5580 5578 5577 5575 5574 5572 5570 5569 5568 5567 5566 5565 5565 5564 5563 5563 5563 5564 5565 5566 5567 5568 5570 5571 5571 5572 5573
5570 5571 5572 5574 5574 5574 5574 5574 5573 5571 5571 5570 5568 5566 5567 5571 5569 5569 5567 5565 5562 5561 5559 5558 5557 5556 5555 5554 5554 5553 5551 5550 5551 5552 5553 5554 5556 5558 5559 5561 5561 5562 5563
5560 5561 5562 5563 5564 5564 5564 5564 5563 5561 5560 5559 5557 5556 5556 5557 5555 5557 5558 5555 5553 5551 5549 5547 5546 5545 5544 5543 5542 5541 5539 5538 5539 5540 5541 5543 5544 5546 5548 5550 5551 5552 5553
5549 5550 5551 5552 5554 5554 5554 5553 5552 5551 5550 5549 5548 5546 5545 5543 5544 5544 5547 5546 5543 5541 5538 5536 5535 5534 5533 5532 5531 5530 5527 5527 5527 5529 5530 5531 5532 5534 5536 5538 5540 5541 5542
5539 5539 5540 5541 5542 5542 5542 5542 5542 5541 5540 5539 5537 5536 5535 5535 5535 5534 5535 5534 5533 5532 5528 5526 5525 5523 5522 5521 5520 5518 5516 5515 5516 5517 5517 5518 5519 5521 5524 5526 5528 5530 5531
5529 5530 5529 5530 5530 5531 5531 5531 5531 5531 5530 5529 5528 5526 5525 5525 5525 5523 5522 5521 5520 5520 5519 5517 5515 5512 5511 5510 5509 5507 5506 5505 5505 5506 5506 5507 5508 5509 5512 5514 5517 5519 5520
5518 5518 5518 5518 5518 5519 5520 5520 5520 5520 5520 5519 5517 5515 5514 5514 5512 5512 5511 5508 5508 5509 5510 5509 5506 5502 5500 5499 5498 5496 5497 5496 5495 5495 5495 5496 5497 5499 5501 5502 5505 5507 5509
5506 5506 5506 5507 5507 5507 5508 5509 5510 5510 5509 5508 5507 5505 5504 5503 5501 5500 5499 5498 5497 5498 5501 5499 5495 5492 5489 5488 5487 5487 5487 5486 5486 5485 5485 5486 5487 5489 5490 5492 5494 5496 5498
5494 5494 5495 5495 5495 5496 5497 5498 5498 5499 5498 5497 5495 5494 5493 5492 5491 5489 5487 5486 5486 5486 5488 5488 5484 5481 5478 5478 5477 5477 5477 5477 5477 5477 5476 5477 5478 5480 5481 5482 5484 5486 5487
5482 5482 5482 5483 5484 5485 5486 5486 5487 5487 5486 5486 5484 5483 5482 5481 5480 5478 5477 5476 5474 5474 5474 5475 5472 5470 5469 5469 5468 5468 5468 5468 5469 5469 5469 5469 5469 5471 5473 5474 5475 5476 5478
5472 5471 5471 5471 5473 5473 5473 5474 5475 5475 5475 5474 5473 5472 5472 5470 5469 5468 5467 5466 5464 5464 5463 5464 5463 5461 5460 5459 5459 5459 5459 5460 5461 5462 5461 5462 5463 5464 5465 5466 5467 5467 5469
5461 5461 5461 5461 5461 5461 5461 5462 5463 5464 5464 5463 5462 5462 5461 5460 5460 5458 5458 5456 5455 5454 5453 5453 5454 5452 5451 5449 5449 5450 5451 5452 5453 5454 5455 5456 5456 5457 5458 5460 5460 5460 5460
5452 5452 5451 5451 5450 5450 5450 5450 5451 5452 5452 5452 5451 5451 5450 5450 5450 5449 5448 5447 5445 5444 5444 5444 5445 5444 5443 5441 5441 5442 5444 5445 5446 5446 5447 5448 5448 5449 5450 5452 5452 5452 5452
5443 5442 5441 5441 5439 5439 5440 5440 5441 5441 5441 5441 5440 5440 5440 5440 5440 5439 5439 5438 5436 5436 5435 5436 5436 5436 5436 5435 5434 5434 5436 5437 5437 5437 5439 5440 5440 5441 5442 5444 5444 5446 5447
5434 5433 5432 5431 5430 5430 5430 5430 5431 5431 5431 5430 5430 5430 5430 5430 5430 5430 5429 5429 5429 5429 5429 5429 5429 5429 5429 5429 5428 5427 5428 5429 5431 5431 5431 5431 5432 5434 5435 5436 5437 5438 5439
5425 5425 5423 5422 5422 5422 5422 5422 5421 5420 5421 5420 5421 5421 5421 5421 5421 5421 5421 5420 5420 5421 5422 5421 5422 5422 5422 5423 5422 5422 5422 5421 5422 5422 5422 5424 5425 5426 5427 5428 5429 5429 5430
5417 5416 5415 5414 5413 5413 5413 5413 5413 5411 5411 5411 5411 5412 5412 5412 5412 5413 5414 5413 5413 5413 5414 5414 5415 5416 5415 5415 5415 5415 5414 5414 5414 5413 5414 5416 5418 5419 5419 5420 5421 5421 5421
5408 5407 5407 5406 5405 5405 5405 5405 5405 5403 5403 5403 5403 5403 5403 5404 5405 5406 5406 5407 5407 5406 5406 5406 5407 5407 5408 5408 5408 5407 5407 5408 5409 5408 5407 5408 5410 5411 5412 5413 5413 5413 5414
5399 5399 5398 5398 5397 5397 5397 5397 5397 5397 5397 5396 5396 5396 5396 5397 5398 5398 5399 5400 5400 5400 5400 5400 5400 5401 5401 5401 5401 5401 5401 5401 5401 5401 5401 5400 5402 5402 5405 5406 5406 5406 5406